GW1714 Weather Reports


Display with metric or nautical units.
time (UTC)temp
F
wind
direction
speed
MPH
gust
MPH
rain 1hr
in
rain 24hr
in
rain mn
in
humidity
%
barometer
mb
20260904112152 72 194 0.0 0.0 0.00 0.00 0.00 95 1036.3
20260904111648 73 194 0.0 1.0 0.00 0.00 0.00 95 1036.0
20260904111143 73 195 0.0 2.0 0.00 0.00 0.00 94 1036.0
20260904110638 73 206 0.0 1.0 0.00 0.00 0.00 93 1035.6
20260904110137 73 168 0.0 1.0 0.00 0.00 0.00 92 1035.8
20260904105632 74 345 0.0 0.0 0.00 0.00 0.00 91 1035.7
20260904105127 74 345 0.0 0.0 0.00 0.00 0.00 91 1035.8
20260904104623 74 345 0.0 0.0 0.00 0.00 0.00 91 1035.8
20260904104118 74 0 0.0 0.0 0.00 0.00 0.00 92 1035.7
20260904103614 73 0 0.0 1.0 0.00 0.00 0.00 92 1035.5
20260904103110 73 354 0.0 1.0 0.00 0.00 0.00 93 1035.4
20260904102606 73 337 0.0 0.0 0.00 0.00 0.00 93 1035.5
20260904102101 73 337 0.0 0.0 0.00 0.00 0.00 93 1035.3
20260904101557 74 331 1.0 3.0 0.00 0.00 0.00 92 1035.3
20260904101052 75 180 0.0 0.0 0.00 0.00 0.00 90 1035.2
20260904100549 74 180 0.0 1.0 0.00 0.00 0.00 90 1035.4
20260904100043 74 8 0.0 0.0 0.00 0.00 0.00 92 1035.3
20260904095538 74 352 0.0 2.0 0.00 0.00 0.00 92 1035.4
20260904095033 74 7 1.0 2.0 0.00 0.00 0.00 91 1035.1
20260904094528 74 0 0.0 0.0 0.00 0.00 0.00 91 1035.4
20260904094023 74 0 0.0 1.0 0.00 0.00 0.00 92 1035.4
20260904093520 74 180 0.0 0.0 0.00 0.00 0.00 92 1035.1
20260904093015 74 0 0.0 0.0 0.00 0.00 0.00 92 1035.2
20260904092510 74 354 0.0 2.0 0.00 0.00 0.00 91 1035.2
20260904092007 75 352 0.0 0.0 0.00 0.00 0.00 89 1035.0
20260904091503 74 0 0.0 0.0 0.00 0.00 0.00 91 1035.3
20260904091002 74 0 1.0 1.0 0.00 0.00 0.00 92 1035.1
20260904090457 74 0 0.0 1.0 0.00 0.00 0.00 92 1034.9
20260904085952 74 331 1.0 3.0 0.00 0.00 0.00 92 1035.2
20260904085448 74 352 0.0 2.0 0.00 0.00 0.00 90 1034.8
20260904084947 74 0 0.0 0.0 0.00 0.00 0.00 91 1035.1
20260904084443 74 0 0.0 1.0 0.00 0.00 0.00 92 1034.9
20260904083944 74 9 2.0 3.0 0.00 0.00 0.00 92 1035.0
20260904083441 75 0 0.0 1.0 0.00 0.00 0.00 89 1035.1
20260904082937 75 337 1.0 3.0 0.00 0.00 0.00 89 1035.0
20260904082437 75 334 1.0 2.0 0.00 0.00 0.00 90 1035.1
20260904081931 75 344 2.0 2.0 0.00 0.00 0.00 88 1035.1
20260904081427 76 353 0.0 0.0 0.00 0.00 0.00 87 1035.0
20260904080923 76 353 0.0 2.0 0.00 0.00 0.00 86 1035.0
20260904080418 77 355 0.0 2.0 0.00 0.00 0.00 84 1035.1
20260904075914 76 345 0.0 2.0 0.00 0.00 0.00 86 1034.9
20260904075410 76 337 0.0 2.0 0.00 0.00 0.00 85 1035.0
20260904074908 76 343 3.0 3.0 0.00 0.00 0.00 89 1034.9
20260904074403 77 355 1.0 3.0 0.00 0.00 0.00 85 1035.0
20260904073859 78 0 0.0 0.0 0.00 0.00 0.00 80 1035.2
20260904073354 78 0 0.0 1.0 0.00 0.00 0.00 82 1035.2
20260904072844 77 0 1.0 2.0 0.00 0.00 0.00 84 1035.4
20260904072339 76 342 1.0 2.0 0.00 0.00 0.00 86 1035.1
20260904071834 77 0 3.0 3.0 0.00 0.00 0.00 84 1035.0
20260904071330 77 352 0.0 2.0 0.00 0.00 0.00 85 1035.1
20260904070824 78 357 3.0 3.0 0.00 0.00 0.00 83 1035.3
20260904070323 78 353 0.0 1.0 0.00 0.00 0.00 81 1035.4
20260904065818 78 0 0.0 0.0 0.00 0.00 0.00 82 1035.0
20260904065315 78 16 2.0 2.0 0.00 0.00 0.00 84 1035.2
20260904064809 78 0 0.0 0.0 0.00 0.00 0.00 80 1035.2
20260904064304 78 0 0.0 0.0 0.00 0.00 0.00 83 1035.2
20260904063801 77 346 1.0 1.0 0.00 0.00 0.00 84 1035.1
20260904063256 78 353 0.0 0.0 0.00 0.00 0.00 81 1035.0
20260904062752 78 106 0.0 0.0 0.00 0.00 0.00 81 1035.5
20260904062248 79 106 0.0 2.0 0.00 0.00 0.00 83 1035.4
20260904061743 79 355 0.0 0.0 0.00 0.00 0.00 79 1035.1
20260904061239 79 345 0.0 1.0 0.00 0.00 0.00 80 1035.6
20260904060736 78 0 1.0 1.0 0.00 0.00 0.00 81 1035.6
20260904060231 78 353 1.0 1.0 0.00 0.00 0.00 83 1035.5
20260904055726 78 349 2.0 2.0 0.00 0.00 0.00 85 1035.6
20260904055221 78 348 0.0 2.0 0.00 0.00 0.00 83 1035.7
20260904054717 77 348 0.0 2.0 0.00 0.00 0.00 85 1035.4
20260904054213 77 350 2.0 2.0 0.00 0.00 0.00 87 1035.7
20260904053708 77 357 3.0 3.0 0.00 0.00 0.00 87 1035.7
20260904053207 77 353 2.0 3.0 0.00 0.00 0.00 87 1035.8
20260904052704 78 7 0.0 2.0 0.00 0.00 0.00 86 1035.9
20260904052200 78 0 0.0 3.0 0.00 0.00 0.00 85 1036.0
20260904051656 79 0 0.0 0.0 0.00 0.00 0.00 82 1035.9
20260904051150 79 352 0.0 0.0 0.00 0.00 0.00 82 1036.1
20260904050646 78 0 0.0 1.0 0.00 0.00 0.00 83 1036.1
20260904050142 80 357 3.0 3.0 0.00 0.00 0.00 82 1036.5
20260904045642 80 0 0.0 0.0 0.00 0.00 0.00 77 1036.3
20260904045142 80 0 0.0 0.0 0.00 0.00 0.00 78 1036.3
20260904044637 80 0 1.0 1.0 0.00 0.00 0.00 78 1036.5
20260904044134 80 0 0.0 0.0 0.00 0.00 0.00 78 1036.3
20260904043630 79 0 0.0 0.0 0.00 0.00 0.00 80 1036.1
20260904043125 79 0 0.0 0.0 0.00 0.00 0.00 81 1036.1
20260904042621 79 0 0.0 1.0 0.00 0.00 0.00 81 1036.1
20260904042117 80 74 0.0 0.0 0.00 0.00 0.00 80 1036.0
20260904041612 80 74 0.0 1.0 0.00 0.00 0.00 81 1036.1
20260904041108 80 120 0.0 2.0 0.00 0.00 0.00 80 1036.0
20260904040603 80 157 0.0 0.0 0.00 0.00 0.00 79 1036.0
20260904040100 80 166 0.0 0.0 0.00 0.00 0.00 79 1036.0
20260904035555 80 151 1.0 2.0 0.00 0.00 0.00 79 1036.5
20260904035054 82 172 0.0 1.0 0.00 0.00 0.00 73 1036.0
20260904034549 82 188 0.0 0.0 0.00 0.00 0.00 73 1036.3
20260904034045 82 188 0.0 0.0 0.00 0.00 0.00 74 1036.1
20260904033541 82 23 0.0 0.0 0.00 0.00 0.00 74 1036.4
20260904033038 82 346 0.0 0.0 0.00 0.00 0.00 73 1036.3
20260904032533 83 353 0.0 3.0 0.00 0.00 0.00 72 1036.1
20260904032032 83 345 2.0 4.0 0.00 0.00 0.00 71 1036.5
20260904031526 83 9 2.0 3.0 0.00 0.00 0.00 71 1036.5
20260904031023 83 0 0.0 2.0 0.00 0.00 0.00 71 1036.4
20260904030518 83 355 2.0 3.0 0.00 0.00 0.00 71 1036.5
20260904030014 83 4 2.0 3.0 0.00 0.00 0.00 72 1036.6
20260904025509 84 348 1.0 2.0 0.00 0.00 0.00 70 1036.4
20260904025004 83 354 0.0 1.0 0.00 0.00 0.00 71 1036.4
20260904024459 83 345 1.0 2.0 0.00 0.00 0.00 72 1036.1
20260904023955 83 352 2.0 2.0 0.00 0.00 0.00 73 1036.4
20260904023451 83 353 1.0 2.0 0.00 0.00 0.00 73 1036.5
20260904022950 83 345 1.0 2.0 0.00 0.00 0.00 74 1036.4
20260904022446 83 346 1.0 2.0 0.00 0.00 0.00 74 1036.1
20260904021943 83 352 1.0 2.0 0.00 0.00 0.00 74 1036.5
20260904021438 83 348 1.0 2.0 0.00 0.00 0.00 74 1036.0
20260904020933 83 342 2.0 2.0 0.00 0.00 0.00 75 1036.3
20260904020428 83 342 2.0 2.0 0.00 0.00 0.00 75 1036.1
20260904015926 83 342 2.0 2.0 0.00 0.00 0.00 75 1036.1
20260904015422 84 346 0.0 2.0 0.00 0.00 0.00 73 1035.9
20260904014921 84 337 0.0 2.0 0.00 0.00 0.00 73 1036.0
20260904014416 84 346 2.0 3.0 0.00 0.00 0.00 74 1035.7
20260904013911 84 351 2.0 3.0 0.00 0.00 0.00 73 1035.8
20260904013408 84 344 2.0 3.0 0.00 0.00 0.00 74 1035.6
20260904012903 84 346 2.0 2.0 0.00 0.00 0.00 73 1035.8
20260904012358 84 354 1.0 2.0 0.00 0.00 0.00 72 1035.7
20260904011857 84 342 2.0 2.0 0.00 0.00 0.00 71 1035.3
20260904011352 84 337 1.0 2.0 0.00 0.00 0.00 72 1035.5
20260904010846 85 353 1.0 2.0 0.00 0.00 0.00 70 1035.4
20260904010343 85 352 0.0 2.0 0.00 0.00 0.00 70 1035.5
20260904005838 85 345 1.0 2.0 0.00 0.00 0.00 69 1035.2
20260904005334 85 353 0.0 2.0 0.00 0.00 0.00 68 1035.1
20260904004829 85 350 2.0 2.0 0.00 0.00 0.00 68 1035.2
20260904004326 86 339 2.0 2.0 0.00 0.00 0.00 67 1035.3
20260904003821 86 340 1.0 2.0 0.00 0.00 0.00 67 1035.1
20260904003317 86 342 0.0 2.0 0.00 0.00 0.00 67 1035.1
20260904002812 86 349 2.0 2.0 0.00 0.00 0.00 67 1035.2
20260904002308 86 352 1.0 2.0 0.00 0.00 0.00 67 1035.1
20260904001807 86 349 2.0 2.0 0.00 0.00 0.00 67 1035.0
20260904001301 86 340 0.0 1.0 0.00 0.00 0.00 67 1034.8
20260904000757 87 345 0.0 1.0 0.00 0.00 0.00 67 1034.8
20260904000251 87 345 0.0 2.0 0.00 0.00 0.00 66 1034.8
20260903235751 87 345 1.0 1.0 0.00 0.00 0.00 65 1034.5
20260903235247 87 331 1.0 2.0 0.00 0.00 0.00 64 1034.8
20260903234746 87 345 0.0 2.0 0.00 0.00 0.00 65 1034.7
20260903234243 87 353 0.0 1.0 0.00 0.00 0.00 65 1034.8
20260903233739 88 350 2.0 2.0 0.00 0.00 0.00 64 1034.4
20260903233234 88 337 0.0 1.0 0.00 0.00 0.00 65 1034.6
20260903232732 88 346 1.0 2.0 0.00 0.00 0.00 65 1034.8
20260903232229 89 334 1.0 4.0 0.00 0.00 0.00 64 1034.7
20260903231728 89 331 2.0 3.0 0.00 0.00 0.00 64 1034.6
20260903231224 89 0 3.0 5.0 0.00 0.00 0.00 63 1034.8
20260903230719 90 354 3.0 3.0 0.00 0.00 0.00 65 1034.6
20260903230214 91 353 1.0 2.0 0.00 0.00 0.00 63 1034.7
20260903225711 91 0 0.0 2.0 0.00 0.00 0.00 61 1034.7
20260903225207 92 344 2.0 2.0 0.00 0.00 0.00 59 1034.6
20260903224703 95 346 1.0 2.0 0.00 0.00 0.00 52 1034.7
20260903224158 98 0 0.0 2.0 0.00 0.00 0.00 49 1034.4
20260903223653 99 346 0.0 0.0 0.00 0.00 0.00 47 1034.5
20260903223151 99 352 0.0 0.0 0.00 0.00 0.00 48 1034.5
20260903222646 99 188 0.0 0.0 0.00 0.00 0.00 47 1034.5
20260903222144 99 172 1.0 2.0 0.00 0.00 0.00 49 1034.6
20260903221640 100 201 0.0 2.0 0.00 0.00 0.00 47 1034.5
20260903221138 101 180 1.0 2.0 0.00 0.00 0.00 47 1034.6
20260903220637 100 188 0.0 2.0 0.00 0.00 0.00 47 1034.5
20260903220132 100 203 0.0 2.0 0.00 0.00 0.00 49 1034.8
20260903215631 99 246 0.0 2.0 0.00 0.00 0.00 50 1034.7
20260903215126 99 337 0.0 1.0 0.00 0.00 0.00 50 1034.7
20260903214625 101 120 0.0 2.0 0.00 0.00 0.00 47 1034.4
20260903214121 100 254 1.0 3.0 0.00 0.00 0.00 49 1034.5
20260903213615 100 209 0.0 0.0 0.00 0.00 0.00 50 1034.7
20260903213111 98 166 1.0 3.0 0.00 0.00 0.00 49 1034.6
20260903212607 100 186 1.0 2.0 0.00 0.00 0.00 48 1034.6
20260903212102 102 120 0.0 2.0 0.00 0.00 0.00 47 1034.7
20260903211557 101 240 0.0 2.0 0.00 0.00 0.00 48 1034.6
20260903211054 100 355 2.0 2.0 0.00 0.00 0.00 47 1034.7
20260903210548 99 151 0.0 3.0 0.00 0.00 0.00 49 1034.8
20260903210044 100 184 2.0 2.0 0.00 0.00 0.00 48 1034.7
20260903205538 101 106 0.0 3.0 0.00 0.00 0.00 46 1034.9
20260903205038 100 0 0.0 3.0 0.00 0.00 0.00 46 1034.9
20260903204534 97 168 0.0 3.0 0.00 0.00 0.00 50 1034.8
20260903204029 96 180 3.0 4.0 0.00 0.00 0.00 51 1034.9
20260903203525 99 176 2.0 3.0 0.00 0.00 0.00 49 1035.2
20260903203024 101 180 2.0 2.0 0.00 0.00 0.00 47 1035.0
20260903202520 99 346 1.0 2.0 0.00 0.00 0.00 48 1035.2
20260903202015 99 270 0.0 3.0 0.00 0.00 0.00 49 1035.1
20260903201510 98 180 3.0 3.0 0.00 0.00 0.00 50 1035.2
20260903201009 98 159 2.0 3.0 0.00 0.00 0.00 50 1035.1
20260903200504 97 180 3.0 5.0 0.00 0.00 0.00 51 1035.3
20260903195958 99 0 0.0 3.0 0.00 0.00 0.00 48 1035.5
20260903195455 98 169 2.0 3.0 0.00 0.00 0.00 50 1035.5
20260903194950 98 172 2.0 3.0 0.00 0.00 0.00 50 1035.3
20260903194445 99 206 0.0 2.0 0.00 0.00 0.00 49 1035.5
20260903193940 100 180 0.0 2.0 0.00 0.00 0.00 48 1035.7
20260903193437 99 345 0.0 2.0 0.00 0.00 0.00 49 1035.7
20260903192931 98 0 1.0 3.0 0.00 0.00 0.00 50 1035.8
20260903192428 98 337 1.0 2.0 0.00 0.00 0.00 51 1035.8
20260903191924 99 172 0.0 1.0 0.00 0.00 0.00 50 1035.7
20260903191420 96 180 2.0 2.0 0.00 0.00 0.00 52 1036.0
20260903190919 95 189 3.0 4.0 0.00 0.00 0.00 52 1035.8
20260903190413 97 195 0.0 2.0 0.00 0.00 0.00 51 1036.1
20260903185913 95 209 1.0 3.0 0.00 0.00 0.00 54 1035.9
20260903185408 95 176 2.0 3.0 0.00 0.00 0.00 52 1036.1
20260903184903 97 209 0.0 1.0 0.00 0.00 0.00 53 1036.3
20260903184401 95 170 2.0 3.0 0.00 0.00 0.00 55 1036.0
20260903183854 94 176 2.0 2.0 0.00 0.00 0.00 58 1036.1
20260903183349 94 180 2.0 4.0 0.00 0.00 0.00 56 1036.1
20260903182849 95 170 2.0 2.0 0.00 0.00 0.00 54 1036.4
20260903182348 95 180 1.0 3.0 0.00 0.00 0.00 56 1036.3
20260903181843 94 165 2.0 2.0 0.00 0.00 0.00 55 1036.5
20260903181338 94 195 0.0 3.0 0.00 0.00 0.00 57 1036.6
20260903180837 94 180 0.0 2.0 0.00 0.00 0.00 59 1036.6
20260903180332 93 175 2.0 2.0 0.00 0.00 0.00 59 1036.7
20260903175831 92 180 2.0 3.0 0.00 0.00 0.00 61 1037.0
20260903175331 93 161 2.0 3.0 0.00 0.00 0.00 60 1036.6
20260903174825 92 0 0.0 2.0 0.00 0.00 0.00 59 1036.9
20260903174320 91 176 2.0 3.0 0.00 0.00 0.00 60 1036.8
20260903173814 91 151 1.0 1.0 0.00 0.00 0.00 62 1037.1
20260903173310 91 163 2.0 2.0 0.00 0.00 0.00 63 1037.1
20260903172806 90 20 0.0 2.0 0.00 0.00 0.00 62 1037.2
20260903172301 90 172 2.0 3.0 0.00 0.00 0.00 64 1037.2
20260903171756 90 180 1.0 3.0 0.00 0.00 0.00 62 1037.2
20260903171252 90 152 0.0 2.0 0.00 0.00 0.00 62 1037.4
20260903170750 89 171 2.0 2.0 0.00 0.00 0.00 64 1037.7
20260903170246 89 180 1.0 2.0 0.00 0.00 0.00 62 1037.7
20260903165744 89 146 2.0 3.0 0.00 0.00 0.00 64 1037.8
20260903165239 88 170 2.0 3.0 0.00 0.00 0.00 65 1037.8
20260903164733 89 180 0.0 1.0 0.00 0.00 0.00 65 1037.8
20260903164229 88 180 2.0 2.0 0.00 0.00 0.00 65 1037.9
20260903163728 87 170 2.0 2.0 0.00 0.00 0.00 66 1037.7
20260903163225 87 170 2.0 2.0 0.00 0.00 0.00 68 1037.7
20260903162721 87 165 0.0 1.0 0.00 0.00 0.00 69 1038.0
20260903162217 87 180 0.0 1.0 0.00 0.00 0.00 69 1037.8
20260903161713 87 154 0.0 0.0 0.00 0.00 0.00 70 1037.9
20260903161208 87 154 0.0 0.0 0.00 0.00 0.00 71 1037.9
20260903160704 86 154 0.0 0.0 0.00 0.00 0.00 71 1037.8
20260903160203 86 168 0.0 2.0 0.00 0.00 0.00 72 1037.9
20260903155701 86 173 0.0 0.0 0.00 0.00 0.00 73 1038.0
20260903155201 86 157 0.0 0.0 0.00 0.00 0.00 74 1037.9
20260903154657 85 157 0.0 0.0 0.00 0.00 0.00 75 1038.2
20260903154153 85 157 0.0 2.0 0.00 0.00 0.00 75 1037.9
20260903153649 84 165 0.0 0.0 0.00 0.00 0.00 76 1037.9
20260903153144 84 11 0.0 0.0 0.00 0.00 0.00 76 1038.0
20260903152640 84 11 0.0 2.0 0.00 0.00 0.00 76 1038.1
20260903152137 83 82 1.0 1.0 0.00 0.00 0.00 77 1038.1
20260903151636 83 165 0.0 1.0 0.00 0.00 0.00 77 1038.0
20260903151131 83 99 0.0 2.0 0.00 0.00 0.00 78 1038.0
20260903150631 82 165 0.0 2.0 0.00 0.00 0.00 79 1038.0
20260903150126 82 180 0.0 1.0 0.00 0.00 0.00 80 1038.1
20260903145626 82 172 0.0 2.0 0.00 0.00 0.00 81 1037.9
20260903145121 82 175 0.0 2.0 0.00 0.00 0.00 81 1037.9
20260903144620 81 180 0.0 0.0 0.00 0.00 0.00 81 1037.9
20260903144116 81 154 1.0 1.0 0.00 0.00 0.00 81 1037.9
20260903143612 80 166 0.0 1.0 0.00 0.00 0.00 81 1037.8
20260903143108 80 140 2.0 2.0 0.00 0.00 0.00 82 1038.1
20260903142603 80 114 0.0 0.0 0.00 0.00 0.00 84 1037.9
20260903142100 80 126 0.0 0.0 0.00 0.00 0.00 84 1037.7
20260903141554 79 166 0.0 1.0 0.00 0.00 0.00 85 1037.8
20260903141049 79 120 1.0 1.0 0.00 0.00 0.00 85 1037.9
20260903140545 79 166 0.0 1.0 0.00 0.00 0.00 86 1037.8
20260903140040 78 160 0.0 1.0 0.00 0.00 0.00 86 1037.9
20260903135536 78 165 0.0 0.0 0.00 0.00 0.00 86 1037.8
20260903135030 78 165 0.0 0.0 0.00 0.00 0.00 86 1038.0
20260903134525 78 15 0.0 0.0 0.00 0.00 0.00 86 1037.9
20260903134021 78 96 2.0 2.0 0.00 0.00 0.00 87 1037.7
20260903133518 78 20 0.0 0.0 0.00 0.00 0.00 86 1037.8
20260903133014 78 20 0.0 0.0 0.00 0.00 0.00 86 1037.8
20260903132513 78 350 2.0 2.0 0.00 0.00 0.00 87 1037.8
20260903132009 77 15 0.0 0.0 0.00 0.00 0.00 88 1037.7
20260903131504 76 15 0.0 1.0 0.00 0.00 0.00 89 1037.9
20260903131002 75 23 1.0 1.0 0.00 0.00 0.00 89 1037.9
20260903130458 75 54 1.0 2.0 0.00 0.00 0.00 89 1037.9
20260903125956 75 90 0.0 0.0 0.00 0.00 0.00 89 1037.9
20260903125451 75 354 0.0 1.0 0.00 0.00 0.00 89 1038.2
20260903124950 75 355 1.0 3.0 0.00 0.00 0.00 90 1037.9
20260903124446 74 345 2.0 2.0 0.00 0.00 0.00 90 1038.2
20260903123944 74 0 0.0 2.0 0.00 0.00 0.00 91 1037.7
20260903123439 74 352 0.0 0.0 0.00 0.00 0.00 92 1037.9
20260903122938 74 0 0.0 2.0 0.00 0.00 0.00 93 1037.7
20260903122433 73 180 0.0 0.0 0.00 0.00 0.00 93 1037.7
20260903121932 73 180 0.0 0.0 0.00 0.00 0.00 93 1037.6
20260903121427 72 180 0.0 0.0 0.00 0.00 0.00 93 1037.9
20260903120923 73 166 0.0 0.0 0.00 0.00 0.00 93 1037.7
20260903120421 73 180 0.0 0.0 0.00 0.00 0.00 93 1037.7
20260903115921 73 0 0.0 0.0 0.00 0.00 0.00 92 1037.6
20260903115420 73 0 0.0 0.0 0.00 0.00 0.00 92 1037.6
20260903114915 73 0 0.0 0.0 0.00 0.00 0.00 92 1037.5
20260903114411 73 0 0.0 0.0 0.00 0.00 0.00 92 1037.5
20260903113906 73 0 0.0 0.0 0.00 0.00 0.00 92 1037.4
20260903113402 73 352 0.0 0.0 0.00 0.00 0.00 92 1037.1
20260903112857 73 345 0.0 0.0 0.00 0.00 0.00 93 1037.4